Private Wetterstation Wechselburg
Wetterdaten: Montag, 09.09.2013
Datum Zeit Temp. +2m Bodentemp. Temp.+5cm Temp. Wind Windchill X Diff Temp. Feuchte +2m Feuchte +5cm Sonnenschein Luftdruck Regen Wind Richtung Richtung Sonnenschein UV Taupunkt Windchill Windben
09.09.2013 00:00 15,9 C 25,4 C 16,2 C 15,8 C 15,7 C 0,0 C 83 % 81 % 0 % 1016,2 hPa 0,0 l/m 0,6 km/h (0 Bft) N 360 0 min 0,0 UV-I 13,0 C 15,7 C 0,0 km/h (0 Bft)
09.09.2013 00:05 15,9 C 25,4 C 16,2 C 15,8 C 15,7 C 0,0 C 83 % 81 % 0 % 1016,2 hPa 0,0 l/m 0,5 km/h (0 Bft) SW 225 0 min 0,0 UV-I 13,0 C 15,7 C 0,0 km/h (0 Bft)
09.09.2013 00:10 15,9 C 25,4 C 16,3 C 15,8 C 15,6 C 0,0 C 83 % 81 % 0 % 1016,2 hPa 0,0 l/m 0,2 km/h (0 Bft) S 180 0 min 0,0 UV-I 13,0 C 15,6 C 0,0 km/h (0 Bft)
09.09.2013 00:15 15,7 C 25,4 C 16,3 C 15,7 C 15,6 C 0,0 C 83 % 81 % 0 % 1015,9 hPa 0,0 l/m 0,3 km/h (0 Bft) O 90 0 min 0,0 UV-I 12,8 C 15,6 C 2,9 km/h (1 Bft)
09.09.2013 00:20 15,7 C 25,4 C 16,1 C 15,7 C 15,6 C 0,0 C 83 % 81 % 0 % 1015,9 hPa 0,0 l/m 0,8 km/h (0 Bft) S 180 0 min 0,0 UV-I 12,8 C 15,6 C 2,3 km/h (1 Bft)
09.09.2013 00:25 15,6 C 25,4 C 16,1 C 15,7 C 15,7 C 0,1 C 83 % 81 % 0 % 1015,9 hPa 0,0 l/m 1,0 km/h (0 Bft) O-NO 67 0 min 0,0 UV-I 12,7 C 15,7 C 0,0 km/h (0 Bft)
09.09.2013 00:30 15,7 C 25,4 C 16,1 C 15,7 C 15,7 C 0,0 C 84 % 81 % 0 % 1015,9 hPa 0,0 l/m 1,1 km/h (1 Bft) N-NO 22 0 min 0,0 UV-I 13,0 C 15,7 C 4,5 km/h (1 Bft)
09.09.2013 00:35 15,6 C 25,4 C 16,0 C 15,7 C 15,7 C 0,1 C 84 % 81 % 0 % 1015,8 hPa 0,0 l/m 0,6 km/h (0 Bft) W-NW 292 0 min 0,0 UV-I 12,9 C 15,7 C 0,0 km/h (0 Bft)
09.09.2013 00:40 15,5 C 25,4 C 16,1 C 15,7 C 15,7 C 0,2 C 84 % 81 % 0 % 1015,8 hPa 0,0 l/m 0,8 km/h (0 Bft) S-SO 157 0 min 0,0 UV-I 12,8 C 15,7 C 1,9 km/h (1 Bft)
09.09.2013 00:45 15,5 C 25,4 C 16,0 C 15,7 C 15,7 C 0,2 C 84 % 81 % 0 % 1015,8 hPa 0,0 l/m 1,1 km/h (1 Bft) N-NW 337 0 min 0,0 UV-I 12,8 C 15,7 C 1,9 km/h (1 Bft)
09.09.2013 00:50 15,5 C 25,4 C 16,1 C 15,7 C 15,7 C 0,2 C 84 % 81 % 0 % 1015,8 hPa 0,0 l/m 0,3 km/h (0 Bft) W-SW 247 0 min 0,0 UV-I 12,8 C 15,7 C 0,0 km/h (0 Bft)
09.09.2013 00:55 15,5 C 25,4 C 16,0 C 15,7 C 15,7 C 0,2 C 84 % 81 % 0 % 1015,6 hPa 0,0 l/m 0,2 km/h (0 Bft) NW 315 0 min 0,0 UV-I 12,8 C 15,7 C 0,0 km/h (0 Bft)
09.09.2013 01:00 15,5 C 25,3 C 16,0 C 15,6 C 15,6 C 0,1 C 84 % 81 % 0 % 1015,6 hPa 0,0 l/m 0,5 km/h (0 Bft) NW 315 0 min 0,0 UV-I 12,8 C 15,6 C 0,0 km/h (0 Bft)
09.09.2013 01:05 15,5 C 25,4 C 16,0 C 15,6 C 15,6 C 0,1 C 84 % 81 % 0 % 1015,6 hPa 0,0 l/m 0,8 km/h (0 Bft) SW 225 0 min 0,0 UV-I 12,8 C 15,6 C 3,9 km/h (1 Bft)
09.09.2013 01:10 15,3 C 25,3 C 15,9 C 15,6 C 15,6 C 0,3 C 84 % 81 % 0 % 1015,6 hPa 0,0 l/m 1,3 km/h (1 Bft) W 270 0 min 0,0 UV-I 12,6 C 15,6 C 3,4 km/h (1 Bft)
09.09.2013 01:15 15,3 C 25,3 C 15,9 C 15,6 C 15,6 C 0,3 C 84 % 81 % 0 % 1015,4 hPa 0,0 l/m 1,3 km/h (1 Bft) W-SW 247 0 min 0,0 UV-I 12,6 C 15,6 C 1,8 km/h (1 Bft)
09.09.2013 01:20 15,2 C 25,3 C 15,9 C 15,6 C 15,6 C 0,4 C 84 % 81 % 0 % 1015,4 hPa 0,0 l/m 1,3 km/h (1 Bft) W-SW 247 0 min 0,0 UV-I 12,5 C 15,6 C 2,3 km/h (1 Bft)
09.09.2013 01:25 15,2 C 25,3 C 15,9 C 15,5 C 15,5 C 0,3 C 84 % 81 % 0 % 1015,4 hPa 0,0 l/m 1,0 km/h (0 Bft) SO 135 0 min 0,0 UV-I 12,5 C 15,5 C 0,0 km/h (0 Bft)
09.09.2013 01:30 15,2 C 25,3 C 15,9 C 15,4 C 15,4 C 0,2 C 84 % 81 % 0 % 1015,4 hPa 0,0 l/m 0,8 km/h (0 Bft) W-SW 247 0 min 0,0 UV-I 12,5 C 15,4 C 0,0 km/h (0 Bft)
09.09.2013 01:35 15,2 C 25,3 C 15,9 C 15,4 C 15,4 C 0,2 C 84 % 81 % 0 % 1015,2 hPa 0,0 l/m 0,6 km/h (0 Bft) W 270 0 min 0,0 UV-I 12,5 C 15,4 C 0,0 km/h (0 Bft)
09.09.2013 01:40 15,1 C 25,3 C 15,9 C 15,4 C 15,4 C 0,3 C 84 % 81 % 0 % 1015,2 hPa 0,0 l/m 0,3 km/h (0 Bft) S-SO 157 0 min 0,0 UV-I 12,4 C 15,4 C 0,0 km/h (0 Bft)
09.09.2013 01:45 15,1 C 25,3 C 15,9 C 15,3 C 15,3 C 0,2 C 84 % 81 % 0 % 1015,2 hPa 0,0 l/m 0,3 km/h (0 Bft) W-SW 247 0 min 0,0 UV-I 12,4 C 15,3 C 0,0 km/h (0 Bft)
09.09.2013 01:50 15,0 C 25,3 C 15,7 C 15,3 C 15,3 C 0,3 C 84 % 81 % 0 % 1015,2 hPa 0,0 l/m 0,5 km/h (0 Bft) N-NW 337 0 min 0,0 UV-I 12,3 C 15,3 C 3,2 km/h (1 Bft)
09.09.2013 01:55 15,0 C 25,2 C 15,7 C 15,3 C 15,3 C 0,3 C 84 % 81 % 0 % 1014,8 hPa 0,0 l/m 0,6 km/h (0 Bft) NW 315 0 min 0,0 UV-I 12,3 C 15,3 C 0,0 km/h (0 Bft)
09.09.2013 02:00 15,1 C 25,2 C 15,6 C 15,3 C 15,3 C 0,2 C 84 % 81 % 0 % 1014,8 hPa 0,0 l/m 1,1 km/h (1 Bft) NW 315 0 min 0,0 UV-I 12,4 C 15,3 C 5,3 km/h (1 Bft)
09.09.2013 02:05 15,0 C 25,2 C 15,6 C 15,3 C 15,3 C 0,3 C 84 % 81 % 0 % 1014,8 hPa 0,0 l/m 1,4 km/h (1 Bft) NO 45 0 min 0,0 UV-I 12,3 C 15,3 C 2,4 km/h (1 Bft)
09.09.2013 02:10 15,0 C 25,2 C 15,5 C 15,3 C 15,3 C 0,3 C 84 % 81 % 0 % 1014,8 hPa 0,0 l/m 1,4 km/h (1 Bft) W-NW 292 0 min 0,0 UV-I 12,3 C 15,3 C 4,0 km/h (1 Bft)
09.09.2013 02:15 15,1 C 25,2 C 15,5 C 15,2 C 15,2 C 0,1 C 84 % 81 % 0 % 1014,6 hPa 0,0 l/m 1,0 km/h (0 Bft) S 180 0 min 0,0 UV-I 12,4 C 15,2 C 2,7 km/h (1 Bft)
09.09.2013 02:20 15,1 C 25,2 C 15,6 C 15,2 C 15,2 C 0,1 C 84 % 81 % 0 % 1014,6 hPa 0,0 l/m 0,3 km/h (0 Bft) N 360 0 min 0,0 UV-I 12,4 C 15,2 C 0,0 km/h (0 Bft)
09.09.2013 02:25 15,1 C 25,2 C 15,5 C 15,2 C 15,2 C 0,1 C 84 % 81 % 0 % 1014,6 hPa 0,0 l/m 0,5 km/h (0 Bft) NW 315 0 min 0,0 UV-I 12,4 C 15,2 C 1,6 km/h (1 Bft)
09.09.2013 02:30 15,1 C 25,2 C 15,6 C 15,2 C 15,2 C 0,1 C 84 % 81 % 0 % 1014,6 hPa 0,0 l/m 0,2 km/h (0 Bft) SW 225 0 min 0,0 UV-I 12,4 C 15,2 C 0,0 km/h (0 Bft)
09.09.2013 02:35 15,0 C 25,2 C 15,5 C 15,2 C 15,2 C 0,2 C 84 % 81 % 0 % 1014,2 hPa 0,0 l/m 0,2 km/h (0 Bft) W-SW 247 0 min 0,0 UV-I 12,3 C 15,2 C 0,0 km/h (0 Bft)
09.09.2013 02:40 14,9 C 25,2 C 15,6 C 15,2 C 15,2 C 0,3 C 84 % 81 % 0 % 1014,2 hPa 0,0 l/m 0,6 km/h (0 Bft) S 180 0 min 0,0 UV-I 12,2 C 15,2 C 0,0 km/h (0 Bft)
09.09.2013 02:45 14,9 C 25,2 C 15,5 C 15,2 C 15,2 C 0,3 C 84 % 81 % 0 % 1014,2 hPa 0,0 l/m 0,6 km/h (0 Bft) W-SW 247 0 min 0,0 UV-I 12,2 C 15,2 C 0,0 km/h (0 Bft)
09.09.2013 02:50 14,9 C 25,2 C 15,5 C 15,1 C 15,1 C 0,2 C 84 % 81 % 0 % 1014,2 hPa 0,0 l/m 0,5 km/h (0 Bft) W-SW 247 0 min 0,0 UV-I 12,2 C 15,1 C 0,0 km/h (0 Bft)
09.09.2013 02:55 14,8 C 25,2 C 15,5 C 15,1 C 15,1 C 0,3 C 84 % 81 % 0 % 1014,0 hPa 0,0 l/m 0,3 km/h (0 Bft) S 180 0 min 0,0 UV-I 12,1 C 15,1 C 1,9 km/h (1 Bft)
09.09.2013 03:00 14,9 C 25,1 C 15,5 C 15,0 C 15,0 C 0,1 C 84 % 81 % 0 % 1014,0 hPa 0,0 l/m 0,2 km/h (0 Bft) W-NW 292 0 min 0,0 UV-I 12,2 C 15,0 C 1,9 km/h (1 Bft)
09.09.2013 03:05 14,8 C 25,2 C 15,5 C 15,0 C 15,0 C 0,2 C 84 % 81 % 0 % 1014,0 hPa 0,0 l/m 0,3 km/h (0 Bft) S 180 0 min 0,0 UV-I 12,1 C 15,0 C 0,0 km/h (0 Bft)
09.09.2013 03:10 14,7 C 25,2 C 15,5 C 14,8 C 14,8 C 0,1 C 84 % 81 % 0 % 1014,0 hPa 0,0 l/m 1,6 km/h (1 Bft) S 180 0 min 0,0 UV-I 12,0 C 14,8 C 7,7 km/h (2 Bft)
09.09.2013 03:15 14,7 C 25,2 C 15,4 C 14,7 C 14,6 C 0,0 C 84 % 82 % 0 % 1013,2 hPa 0,0 l/m 1,9 km/h (1 Bft) S 180 0 min 0,0 UV-I 12,0 C 14,6 C 2,4 km/h (1 Bft)
09.09.2013 03:20 14,4 C 25,2 C 15,3 C 14,4 C 14,3 C 0,0 C 85 % 82 % 0 % 1013,2 hPa 0,0 l/m 1,0 km/h (0 Bft) S-SW 202 0 min 0,0 UV-I 11,9 C 14,3 C 0,0 km/h (0 Bft)
09.09.2013 03:25 14,4 C 25,3 C 15,2 C 14,3 C 14,2 C 0,0 C 85 % 82 % 0 % 1013,2 hPa 0,0 l/m 0,8 km/h (0 Bft) S 180 0 min 0,0 UV-I 11,9 C 14,2 C 0,0 km/h (0 Bft)
09.09.2013 03:30 14,3 C 25,3 C 15,1 C 14,2 C 14,0 C 0,0 C 85 % 82 % 0 % 1013,2 hPa 0,0 l/m 0,6 km/h (0 Bft) W-SW 247 0 min 0,0 UV-I 11,8 C 14,0 C 3,7 km/h (1 Bft)
09.09.2013 03:35 14,1 C 25,3 C 15,1 C 14,1 C 14,0 C 0,0 C 85 % 82 % 0 % 1013,2 hPa 0,7 l/m 1,0 km/h (0 Bft) W-NW 292 0 min 0,0 UV-I 11,6 C 14,0 C 2,9 km/h (1 Bft)
09.09.2013 03:40 13,9 C 25,3 C 14,9 C 13,9 C 13,8 C 0,0 C 86 % 82 % 0 % 1013,2 hPa 0,0 l/m 1,3 km/h (1 Bft) N-NW 337 0 min 0,0 UV-I 11,6 C 13,8 C 1,8 km/h (1 Bft)
09.09.2013 03:45 13,8 C 25,3 C 14,7 C 13,8 C 13,8 C 0,0 C 86 % 83 % 0 % 1013,2 hPa 0,0 l/m 1,1 km/h (1 Bft) S 180 0 min 0,0 UV-I 11,5 C 13,8 C 1,8 km/h (1 Bft)
09.09.2013 03:50 13,7 C 25,3 C 14,7 C 13,8 C 13,8 C 0,1 C 86 % 83 % 0 % 1013,2 hPa 0,0 l/m 1,4 km/h (1 Bft) W-SW 247 0 min 0,0 UV-I 11,4 C 13,8 C 3,2 km/h (1 Bft)
09.09.2013 03:55 13,5 C 25,3 C 14,6 C 13,8 C 13,8 C 0,3 C 86 % 83 % 0 % 1013,0 hPa 0,0 l/m 1,9 km/h (1 Bft) W 270 0 min 0,0 UV-I 11,2 C 13,8 C 2,6 km/h (1 Bft)
09.09.2013 04:00 13,4 C 25,2 C 14,7 C 13,7 C 13,7 C 0,3 C 86 % 82 % 0 % 1013,0 hPa 0,0 l/m 1,6 km/h (1 Bft) NW 315 0 min 0,0 UV-I 11,1 C 13,7 C 3,1 km/h (1 Bft)
09.09.2013 04:05 13,5 C 25,2 C 14,7 C 13,7 C 13,7 C 0,2 C 87 % 83 % 0 % 1013,0 hPa 0,0 l/m 2,3 km/h (1 Bft) S 180 0 min 0,0 UV-I 11,4 C 13,7 C 3,9 km/h (1 Bft)
09.09.2013 04:10 13,3 C 25,2 C 14,7 C 13,7 C 13,7 C 0,4 C 87 % 83 % 0 % 1013,0 hPa 0,0 l/m 2,6 km/h (1 Bft) S-SW 202 0 min 0,0 UV-I 11,2 C 13,7 C 8,0 km/h (2 Bft)
09.09.2013 04:15 13,2 C 25,3 C 14,7 C 13,7 C 13,7 C 0,5 C 87 % 83 % 0 % 1013,0 hPa 0,0 l/m 2,3 km/h (1 Bft) W 270 0 min 0,0 UV-I 11,1 C 13,7 C 3,1 km/h (1 Bft)
09.09.2013 04:20 13,3 C 25,3 C 14,7 C 13,7 C 13,7 C 0,4 C 87 % 84 % 0 % 1013,0 hPa 0,7 l/m 1,9 km/h (1 Bft) S-SW 202 0 min 0,0 UV-I 11,2 C 13,7 C 1,6 km/h (1 Bft)
09.09.2013 04:25 13,2 C 25,3 C 14,6 C 13,7 C 13,7 C 0,5 C 87 % 84 % 0 % 1013,0 hPa 0,0 l/m 1,6 km/h (1 Bft) NO 45 0 min 0,0 UV-I 11,1 C 13,7 C 3,1 km/h (1 Bft)
09.09.2013 04:30 13,2 C 25,3 C 14,7 C 13,7 C 13,7 C 0,5 C 87 % 85 % 0 % 1013,0 hPa 0,0 l/m 1,6 km/h (1 Bft) SW 225 0 min 0,0 UV-I 11,1 C 13,7 C 2,3 km/h (1 Bft)
09.09.2013 04:35 13,1 C 25,3 C 14,6 C 13,7 C 13,7 C 0,6 C 88 % 85 % 0 % 1012,8 hPa 0,0 l/m 2,1 km/h (1 Bft) W-SW 247 0 min 0,0 UV-I 11,2 C 13,7 C 2,4 km/h (1 Bft)
09.09.2013 04:40 13,1 C 25,2 C 14,5 C 13,7 C 13,7 C 0,6 C 88 % 85 % 0 % 1012,8 hPa 0,7 l/m 2,3 km/h (1 Bft) W-SW 247 0 min 0,0 UV-I 11,2 C 13,7 C 3,2 km/h (1 Bft)
09.09.2013 04:45 13,1 C 25,2 C 14,4 C 13,6 C 13,6 C 0,5 C 88 % 85 % 0 % 1012,8 hPa 0,7 l/m 2,6 km/h (1 Bft) W-SW 247 0 min 0,0 UV-I 11,2 C 13,6 C 2,6 km/h (1 Bft)
09.09.2013 04:50 12,9 C 25,2 C 14,3 C 13,6 C 13,6 C 0,7 C 88 % 85 % 0 % 1012,8 hPa 0,0 l/m 2,4 km/h (1 Bft) SW 225 0 min 0,0 UV-I 11,0 C 13,6 C 4,2 km/h (1 Bft)
09.09.2013 04:55 12,9 C 25,2 C 14,3 C 13,6 C 13,6 C 0,7 C 88 % 85 % 0 % 1012,4 hPa 0,7 l/m 2,7 km/h (1 Bft) SW 225 0 min 0,0 UV-I 11,0 C 13,6 C 4,0 km/h (1 Bft)
09.09.2013 05:00 12,9 C 25,2 C 14,3 C 13,4 C 13,4 C 0,5 C 88 % 86 % 0 % 1012,4 hPa 0,0 l/m 3,7 km/h (1 Bft) S 180 0 min 0,0 UV-I 11,0 C 13,4 C 8,5 km/h (2 Bft)
09.09.2013 05:05 12,7 C 25,2 C 14,1 C 13,4 C 13,4 C 0,7 C 88 % 86 % 0 % 1012,4 hPa 0,0 l/m 3,9 km/h (1 Bft) S 180 0 min 0,0 UV-I 10,8 C 13,4 C 8,0 km/h (2 Bft)
09.09.2013 05:10 12,7 C 25,2 C 14,0 C 13,2 C 13,2 C 0,5 C 88 % 86 % 0 % 1012,4 hPa 0,0 l/m 4,2 km/h (1 Bft) SW 225 0 min 0,0 UV-I 10,8 C 13,2 C 11,6 km/h (2 Bft)
09.09.2013 05:15 12,5 C 25,1 C 13,8 C 13,1 C 13,1 C 0,6 C 88 % 86 % 0 % 1012,4 hPa 0,0 l/m 4,5 km/h (1 Bft) S 180 0 min 0,0 UV-I 10,6 C 13,1 C 6,4 km/h (2 Bft)
09.09.2013 05:20 12,4 C 25,1 C 13,8 C 13,0 C 13,0 C 0,6 C 88 % 86 % 0 % 1012,4 hPa 0,0 l/m 4,5 km/h (1 Bft) W-SW 247 0 min 0,0 UV-I 10,5 C 13,0 C 4,8 km/h (1 Bft)
09.09.2013 05:25 12,4 C 25,1 C 13,7 C 13,0 C 13,0 C 0,6 C 89 % 86 % 0 % 1012,4 hPa 0,7 l/m 5,1 km/h (1 Bft) S-SO 157 0 min 0,0 UV-I 10,6 C 13,0 C 2,6 km/h (1 Bft)
09.09.2013 05:30 12,3 C 25,1 C 13,6 C 12,8 C 12,8 C 0,5 C 89 % 86 % 0 % 1012,4 hPa 0,0 l/m 4,8 km/h (1 Bft) O-SO 112 0 min 0,0 UV-I 10,5 C 12,8 C 13,4 km/h (3 Bft)
09.09.2013 05:35 12,2 C 25,1 C 13,7 C 12,8 C 12,8 C 0,6 C 89 % 86 % 0 % 1012,5 hPa 0,0 l/m 4,8 km/h (1 Bft) SW 225 0 min 0,0 UV-I 10,4 C 12,8 C 9,5 km/h (2 Bft)
09.09.2013 05:40 12,3 C 25,1 C 13,6 C 12,8 C 12,8 C 0,5 C 89 % 86 % 0 % 1012,5 hPa 0,0 l/m 4,8 km/h (1 Bft) W-SW 247 0 min 0,0 UV-I 10,5 C 12,8 C 5,0 km/h (1 Bft)
09.09.2013 05:45 12,1 C 25,1 C 13,5 C 12,7 C 12,7 C 0,6 C 89 % 86 % 0 % 1012,5 hPa 0,0 l/m 4,5 km/h (1 Bft) SW 225 0 min 0,0 UV-I 10,3 C 12,7 C 2,9 km/h (1 Bft)
09.09.2013 05:50 12,1 C 25,1 C 13,5 C 12,7 C 12,7 C 0,6 C 89 % 86 % 0 % 1012,5 hPa 0,0 l/m 4,0 km/h (1 Bft) NW 315 0 min 0,0 UV-I 10,3 C 12,7 C 5,6 km/h (1 Bft)
09.09.2013 05:55 12,0 C 25,1 C 13,4 C 12,6 C 12,6 C 0,6 C 89 % 86 % 0 % 1012,6 hPa 0,0 l/m 4,8 km/h (1 Bft) W-SW 247 0 min 0,0 UV-I 10,2 C 12,6 C 5,5 km/h (1 Bft)
09.09.2013 06:00 12,0 C 25,0 C 13,5 C 12,6 C 12,6 C 0,6 C 89 % 87 % 0 % 1012,6 hPa 0,7 l/m 4,7 km/h (1 Bft) W-NW 292 0 min 0,0 UV-I 10,2 C 12,6 C 3,1 km/h (1 Bft)
09.09.2013 06:05 12,0 C 25,0 C 13,4 C 12,6 C 12,6 C 0,6 C 89 % 87 % 0 % 1012,6 hPa 0,7 l/m 3,7 km/h (1 Bft) W-SW 247 0 min 0,0 UV-I 10,2 C 12,6 C 5,6 km/h (1 Bft)
09.09.2013 06:10 12,0 C 25,0 C 13,3 C 12,5 C 12,5 C 0,5 C 89 % 87 % 0 % 1012,6 hPa 0,7 l/m 3,1 km/h (1 Bft) W 270 0 min 0,0 UV-I 10,2 C 12,5 C 1,6 km/h (1 Bft)
09.09.2013 06:15 12,0 C 25,0 C 13,3 C 12,5 C 12,5 C 0,5 C 89 % 87 % 0 % 1013,4 hPa 0,0 l/m 2,6 km/h (1 Bft) N 360 0 min 0,0 UV-I 10,2 C 12,5 C 2,1 km/h (1 Bft)
09.09.2013 06:20 11,9 C 24,8 C 13,3 C 12,5 C 12,5 C 0,6 C 89 % 87 % 0 % 1013,4 hPa 1,4 l/m 1,8 km/h (1 Bft) S-SW 202 0 min 0,0 UV-I 10,1 C 12,5 C 2,3 km/h (1 Bft)
09.09.2013 06:25 11,9 C 24,6 C 13,3 C 12,5 C 12,5 C 0,6 C 89 % 87 % 0 % 1013,4 hPa 0,7 l/m 1,9 km/h (1 Bft) W 270 0 min 0,0 UV-I 10,1 C 12,5 C 2,1 km/h (1 Bft)
09.09.2013 06:30 11,8 C 23,8 C 13,2 C 12,5 C 12,5 C 0,7 C 89 % 87 % 0 % 1013,4 hPa 1,4 l/m 2,1 km/h (1 Bft) SW 225 0 min 0,0 UV-I 10,0 C 12,5 C 2,6 km/h (1 Bft)
09.09.2013 06:35 11,8 C 23,8 C 13,2 C 12,5 C 12,5 C 0,7 C 90 % 87 % 0 % 1012,8 hPa 0,0 l/m 2,3 km/h (1 Bft) SW 225 0 min 0,0 UV-I 10,2 C 12,5 C 6,9 km/h (2 Bft)
09.09.2013 06:40 11,8 C 23,9 C 13,3 C 12,5 C 12,5 C 0,7 C 90 % 87 % 0 % 1012,8 hPa 0,7 l/m 3,2 km/h (1 Bft) S 180 0 min 0,0 UV-I 10,2 C 12,5 C 6,9 km/h (2 Bft)
09.09.2013 06:45 11,8 C 24,0 C 13,2 C 12,5 C 12,5 C 0,7 C 90 % 87 % 0 % 1012,8 hPa 0,7 l/m 3,1 km/h (1 Bft) S 180 0 min 0,0 UV-I 10,2 C 12,5 C 3,9 km/h (1 Bft)
09.09.2013 06:50 11,9 C 24,1 C 13,2 C 12,5 C 12,5 C 0,6 C 90 % 88 % 16 % 1012,8 hPa 0,0 l/m 3,2 km/h (1 Bft) W 270 5 min 0,0 UV-I 10,3 C 12,5 C 3,7 km/h (1 Bft)
09.09.2013 06:55 11,9 C 24,1 C 13,3 C 12,5 C 12,5 C 0,6 C 90 % 88 % 16 % 1012,4 hPa 0,7 l/m 3,9 km/h (1 Bft) W-NW 292 5 min 0,0 UV-I 10,3 C 12,5 C 2,9 km/h (1 Bft)
09.09.2013 07:00 11,9 C 24,2 C 13,3 C 12,5 C 12,5 C 0,6 C 90 % 88 % 16 % 1012,4 hPa 0,0 l/m 4,3 km/h (1 Bft) W-SW 247 5 min 0,0 UV-I 10,3 C 12,5 C 6,8 km/h (2 Bft)
09.09.2013 07:05 11,9 C 24,2 C 13,3 C 12,4 C 12,4 C 0,5 C 90 % 88 % 13 % 1012,4 hPa 0,0 l/m 4,3 km/h (1 Bft) S 180 0 min 0,0 UV-I 10,3 C 12,4 C 6,0 km/h (2 Bft)
09.09.2013 07:10 11,7 C 24,2 C 13,3 C 12,4 C 12,4 C 0,7 C 90 % 88 % 18 % 1012,4 hPa 0,7 l/m 4,3 km/h (1 Bft) S-SW 202 0 min 0,0 UV-I 10,1 C 12,4 C 15,6 km/h (3 Bft)
09.09.2013 07:15 11,7 C 24,2 C 13,2 C 12,4 C 12,4 C 0,7 C 90 % 88 % 18 % 1013,1 hPa 0,0 l/m 5,0 km/h (1 Bft) SW 225 0 min 0,0 UV-I 10,1 C 12,4 C 4,3 km/h (1 Bft)
09.09.2013 07:20 11,7 C 24,3 C 13,2 C 12,4 C 12,4 C 0,7 C 90 % 88 % 18 % 1013,1 hPa 0,0 l/m 5,3 km/h (1 Bft) S 180 0 min 0,0 UV-I 10,1 C 12,4 C 4,8 km/h (1 Bft)
09.09.2013 07:25 11,7 C 24,3 C 13,1 C 12,4 C 12,4 C 0,7 C 90 % 88 % 18 % 1013,1 hPa 0,0 l/m 4,5 km/h (1 Bft) W-SW 247 0 min 0,0 UV-I 10,1 C 12,4 C 3,5 km/h (1 Bft)
09.09.2013 07:30 11,7 C 24,3 C 13,1 C 12,5 C 12,5 C 0,8 C 90 % 88 % 21 % 1013,1 hPa 0,0 l/m 4,5 km/h (1 Bft) S 180 0 min 0,0 UV-I 10,1 C 12,5 C 5,5 km/h (1 Bft)
09.09.2013 07:35 11,7 C 24,3 C 13,2 C 12,5 C 12,5 C 0,8 C 90 % 88 % 21 % 1013,2 hPa 0,0 l/m 5,0 km/h (1 Bft) W 270 0 min 0,0 UV-I 10,1 C 12,5 C 9,8 km/h (2 Bft)
09.09.2013 07:40 11,8 C 24,3 C 13,1 C 12,2 C 12,2 C 0,4 C 90 % 88 % 11 % 1013,2 hPa 0,0 l/m 5,8 km/h (2 Bft) SW 225 0 min 0,0 UV-I 10,2 C 12,2 C 11,9 km/h (2 Bft)
09.09.2013 07:45 11,7 C 24,3 C 13,1 C 12,1 C 12,1 C 0,4 C 90 % 88 % 11 % 1013,2 hPa 0,7 l/m 6,3 km/h (2 Bft) S-SW 202 0 min 0,0 UV-I 10,1 C 12,1 C 10,5 km/h (2 Bft)
09.09.2013 07:50 11,9 C 24,3 C 13,1 C 12,0 C 12,0 C 0,1 C 90 % 88 % 3 % 1013,2 hPa 0,0 l/m 6,9 km/h (2 Bft) W-SW 247 0 min 0,0 UV-I 10,3 C 12,0 C 16,3 km/h (3 Bft)
09.09.2013 07:55 11,8 C 24,3 C 13,1 C 12,1 C 12,1 C 0,3 C 90 % 88 % 8 % 1013,2 hPa 0,0 l/m 6,3 km/h (2 Bft) NW 315 0 min 0,0 UV-I 10,2 C 12,1 C 4,5 km/h (1 Bft)
09.09.2013 08:00 11,9 C 24,3 C 13,1 C 12,4 C 12,4 C 0,5 C 90 % 88 % 13 % 1013,2 hPa 0,0 l/m 5,6 km/h (1 Bft) SW 225 0 min 0,0 UV-I 10,3 C 12,4 C 7,6 km/h (2 Bft)
09.09.2013 08:05 11,9 C 24,3 C 13,1 C 12,4 C 12,4 C 0,5 C 91 % 88 % 13 % 1013,2 hPa 0,0 l/m 5,5 km/h (1 Bft) O-NO 67 0 min 0,0 UV-I 10,5 C 12,4 C 6,1 km/h (2 Bft)
09.09.2013 08:10 11,9 C 24,3 C 13,1 C 12,5 C 12,5 C 0,6 C 91 % 88 % 16 % 1013,2 hPa 0,0 l/m 5,3 km/h (1 Bft) W 270 0 min 0,0 UV-I 10,5 C 12,5 C 5,8 km/h (2 Bft)
09.09.2013 08:15 11,9 C 24,3 C 13,1 C 12,5 C 12,5 C 0,6 C 91 % 88 % 16 % 1013,4 hPa 0,0 l/m 5,1 km/h (1 Bft) S-SW 202 0 min 0,0 UV-I 10,5 C 12,5 C 6,0 km/h (2 Bft)
09.09.2013 08:20 11,9 C 24,3 C 13,1 C 12,6 C 12,6 C 0,7 C 91 % 88 % 18 % 1013,4 hPa 0,0 l/m 4,8 km/h (1 Bft) S-SW 202 0 min 0,0 UV-I 10,5 C 12,6 C 10,1 km/h (2 Bft)
09.09.2013 08:25 11,9 C 24,3 C 13,2 C 12,6 C 12,6 C 0,7 C 91 % 88 % 18 % 1013,4 hPa 0,0 l/m 4,5 km/h (1 Bft) S-SO 157 0 min 0,0 UV-I 10,5 C 12,6 C 3,9 km/h (1 Bft)
09.09.2013 08:30 11,8 C 24,3 C 13,2 C 12,6 C 12,6 C 0,8 C 91 % 88 % 21 % 1013,4 hPa 0,0 l/m 4,5 km/h (1 Bft) S-SW 202 0 min 0,0 UV-I 10,4 C 12,6 C 7,9 km/h (2 Bft)
09.09.2013 08:35 11,9 C 24,3 C 13,2 C 12,7 C 12,7 C 0,8 C 91 % 88 % 21 % 1013,4 hPa 0,0 l/m 4,2 km/h (1 Bft) W 270 0 min 0,0 UV-I 10,5 C 12,7 C 4,5 km/h (1 Bft)
09.09.2013 08:40 11,9 C 24,3 C 13,3 C 12,7 C 12,7 C 0,8 C 91 % 88 % 21 % 1013,4 hPa 0,0 l/m 4,5 km/h (1 Bft) S 180 0 min 0,0 UV-I 10,5 C 12,7 C 7,1 km/h (2 Bft)
09.09.2013 08:45 11,9 C 24,3 C 13,2 C 12,7 C 12,7 C 0,8 C 91 % 88 % 21 % 1013,4 hPa 0,0 l/m 5,0 km/h (1 Bft) SW 225 0 min 0,0 UV-I 10,5 C 12,7 C 13,4 km/h (3 Bft)
09.09.2013 08:50 11,9 C 24,3 C 13,2 C 12,4 C 12,4 C 0,5 C 91 % 88 % 13 % 1013,4 hPa 0,0 l/m 6,0 km/h (2 Bft) SW 225 0 min 0,0 UV-I 10,5 C 12,4 C 9,0 km/h (2 Bft)
09.09.2013 08:55 11,9 C 24,3 C 13,3 C 12,4 C 12,4 C 0,5 C 91 % 88 % 13 % 1013,8 hPa 0,0 l/m 6,0 km/h (2 Bft) NW 315 0 min 0,0 UV-I 10,5 C 12,4 C 4,2 km/h (1 Bft)
09.09.2013 09:00 11,9 C 24,3 C 13,2 C 12,7 C 12,7 C 0,8 C 91 % 88 % 21 % 1013,8 hPa 0,0 l/m 4,8 km/h (1 Bft) W-SW 247 0 min 0,0 UV-I 10,5 C 12,7 C 5,0 km/h (1 Bft)
09.09.2013 09:05 11,9 C 24,3 C 13,2 C 12,7 C 12,7 C 0,8 C 91 % 88 % 21 % 1013,8 hPa 0,0 l/m 4,3 km/h (1 Bft) W-SW 247 0 min 0,0 UV-I 10,5 C 12,7 C 2,3 km/h (1 Bft)
09.09.2013 09:10 11,9 C 24,2 C 13,3 C 12,8 C 12,8 C 0,9 C 91 % 88 % 24 % 1013,8 hPa 0,0 l/m 4,8 km/h (1 Bft) W-SW 247 0 min 0,0 UV-I 10,5 C 12,8 C 7,9 km/h (2 Bft)
09.09.2013 09:15 12,0 C 24,2 C 13,2 C 12,8 C 12,8 C 0,8 C 91 % 88 % 21 % 1013,9 hPa 0,0 l/m 5,0 km/h (1 Bft) S-SW 202 0 min 0,0 UV-I 10,6 C 12,8 C 3,4 km/h (1 Bft)
09.09.2013 09:20 12,0 C 24,2 C 13,3 C 12,8 C 12,8 C 0,8 C 91 % 88 % 21 % 1013,9 hPa 0,0 l/m 5,3 km/h (1 Bft) SW 225 0 min 0,0 UV-I 10,6 C 12,8 C 6,4 km/h (2 Bft)
09.09.2013 09:25 12,1 C 24,2 C 13,2 C 12,7 C 12,7 C 0,6 C 91 % 88 % 16 % 1013,9 hPa 0,0 l/m 5,8 km/h (2 Bft) SW 225 0 min 0,0 UV-I 10,7 C 12,7 C 13,0 km/h (3 Bft)
09.09.2013 09:30 12,0 C 24,2 C 13,2 C 12,7 C 12,7 C 0,7 C 91 % 88 % 18 % 1013,9 hPa 0,0 l/m 6,0 km/h (2 Bft) N-NW 337 0 min 0,0 UV-I 10,6 C 12,7 C 6,6 km/h (2 Bft)
09.09.2013 09:35 12,1 C 24,2 C 13,2 C 12,6 C 12,6 C 0,5 C 91 % 88 % 13 % 1014,1 hPa 0,0 l/m 6,1 km/h (2 Bft) S 180 0 min 0,0 UV-I 10,7 C 12,6 C 3,7 km/h (1 Bft)
09.09.2013 09:40 12,1 C 24,2 C 13,2 C 12,4 C 12,4 C 0,3 C 91 % 88 % 8 % 1014,1 hPa 0,0 l/m 6,8 km/h (2 Bft) S 180 0 min 0,0 UV-I 10,7 C 12,4 C 11,3 km/h (2 Bft)
09.09.2013 09:45 12,0 C 24,2 C 13,2 C 12,4 C 12,4 C 0,4 C 90 % 88 % 11 % 1014,1 hPa 0,0 l/m 6,6 km/h (2 Bft) S-SW 202 0 min 0,0 UV-I 10,4 C 12,4 C 10,1 km/h (2 Bft)
09.09.2013 09:50 12,0 C 24,2 C 13,2 C 12,6 C 12,6 C 0,6 C 90 % 88 % 16 % 1014,1 hPa 0,0 l/m 6,1 km/h (2 Bft) S 180 0 min 0,0 UV-I 10,4 C 12,6 C 5,1 km/h (1 Bft)
09.09.2013 09:55 12,0 C 24,2 C 13,2 C 12,7 C 12,7 C 0,7 C 90 % 88 % 18 % 1014,6 hPa 0,0 l/m 6,0 km/h (2 Bft) W 270 0 min 0,0 UV-I 10,4 C 12,7 C 10,0 km/h (2 Bft)
09.09.2013 10:00 12,0 C 24,2 C 13,3 C 12,6 C 12,6 C 0,6 C 90 % 88 % 16 % 1014,6 hPa 0,0 l/m 6,1 km/h (2 Bft) O-SO 112 0 min 0,0 UV-I 10,4 C 12,6 C 7,9 km/h (2 Bft)
09.09.2013 10:05 12,0 C 24,2 C 13,2 C 12,6 C 12,6 C 0,6 C 90 % 88 % 16 % 1014,6 hPa 0,0 l/m 6,1 km/h (2 Bft) W-SW 247 0 min 0,0 UV-I 10,4 C 12,6 C 10,5 km/h (2 Bft)
09.09.2013 10:10 12,0 C 24,2 C 13,3 C 12,6 C 12,6 C 0,6 C 90 % 88 % 16 % 1014,6 hPa 0,0 l/m 6,3 km/h (2 Bft) W-SW 247 0 min 0,0 UV-I 10,4 C 12,6 C 6,6 km/h (2 Bft)
09.09.2013 10:15 12,1 C 24,2 C 13,3 C 12,6 C 12,6 C 0,5 C 90 % 88 % 13 % 1014,8 hPa 0,0 l/m 6,4 km/h (2 Bft) W-SW 247 0 min 0,0 UV-I 10,5 C 12,6 C 19,2 km/h (3 Bft)
09.09.2013 10:20 12,1 C 24,2 C 13,2 C 12,7 C 12,7 C 0,6 C 90 % 88 % 16 % 1014,8 hPa 0,0 l/m 6,3 km/h (2 Bft) W 270 0 min 0,0 UV-I 10,5 C 12,7 C 6,9 km/h (2 Bft)
09.09.2013 10:25 12,1 C 24,2 C 13,3 C 12,8 C 12,8 C 0,7 C 90 % 88 % 18 % 1014,8 hPa 0,0 l/m 6,4 km/h (2 Bft) S-SO 157 0 min 0,0 UV-I 10,5 C 12,8 C 10,9 km/h (2 Bft)
09.09.2013 10:30 12,2 C 24,2 C 13,5 C 13,1 C 13,1 C 0,9 C 90 % 89 % 24 % 1014,8 hPa 0,0 l/m 5,1 km/h (1 Bft) S-SW 202 0 min 0,0 UV-I 10,6 C 13,1 C 5,0 km/h (1 Bft)
09.09.2013 10:35 12,2 C 24,2 C 13,5 C 13,2 C 13,2 C 1,0 C 90 % 89 % 26 % 1014,8 hPa 0,0 l/m 4,8 km/h (1 Bft) W-SW 247 0 min 0,0 UV-I 10,6 C 13,2 C 8,7 km/h (2 Bft)
09.09.2013 10:40 12,4 C 24,2 C 13,7 C 13,5 C 13,5 C 1,1 C 91 % 89 % 29 % 1014,8 hPa 0,0 l/m 4,8 km/h (1 Bft) S-SW 202 0 min 0,0 UV-I 11,0 C 13,5 C 7,1 km/h (2 Bft)
09.09.2013 10:45 12,4 C 24,1 C 13,5 C 13,4 C 13,4 C 1,0 C 91 % 89 % 26 % 1014,8 hPa 0,0 l/m 5,8 km/h (2 Bft) SW 225 0 min 0,0 UV-I 11,0 C 13,4 C 6,9 km/h (2 Bft)
09.09.2013 10:50 12,4 C 24,1 C 13,5 C 13,2 C 13,2 C 0,8 C 90 % 89 % 21 % 1014,8 hPa 0,0 l/m 6,0 km/h (2 Bft) SW 225 0 min 0,0 UV-I 10,8 C 13,2 C 6,0 km/h (2 Bft)
09.09.2013 10:55 12,3 C 24,1 C 13,6 C 13,3 C 13,3 C 1,0 C 90 % 89 % 26 % 1015,0 hPa 0,0 l/m 5,6 km/h (1 Bft) NW 315 0 min 0,0 UV-I 10,7 C 13,3 C 10,5 km/h (2 Bft)
09.09.2013 11:00 12,3 C 24,1 C 13,5 C 13,2 C 13,2 C 0,9 C 90 % 89 % 24 % 1015,0 hPa 0,0 l/m 5,6 km/h (1 Bft) N-NO 22 0 min 0,0 UV-I 10,7 C 13,2 C 4,5 km/h (1 Bft)
09.09.2013 11:05 12,3 C 24,1 C 13,5 C 13,2 C 13,2 C 0,9 C 90 % 89 % 24 % 1015,0 hPa 0,0 l/m 5,3 km/h (1 Bft) W-SW 247 0 min 0,0 UV-I 10,7 C 13,2 C 11,1 km/h (2 Bft)
09.09.2013 11:10 12,3 C 24,0 C 13,5 C 13,2 C 13,2 C 0,9 C 90 % 89 % 24 % 1015,0 hPa 0,0 l/m 5,6 km/h (1 Bft) W-SW 247 0 min 0,0 UV-I 10,7 C 13,2 C 6,8 km/h (2 Bft)
09.09.2013 11:15 12,5 C 24,0 C 13,7 C 13,6 C 13,6 C 1,1 C 90 % 89 % 29 % 1014,9 hPa 0,0 l/m 5,8 km/h (2 Bft) SW 225 0 min 0,0 UV-I 10,9 C 13,6 C 7,4 km/h (2 Bft)
09.09.2013 11:20 12,7 C 23,9 C 13,9 C 14,2 C 14,2 C 1,5 C 90 % 89 % 39 % 1014,9 hPa 0,0 l/m 6,0 km/h (2 Bft) S-SW 202 0 min 0,0 UV-I 11,1 C 14,2 C 3,9 km/h (1 Bft)
09.09.2013 11:25 12,7 C 23,8 C 13,8 C 14,4 C 14,4 C 1,7 C 90 % 89 % 45 % 1014,9 hPa 0,0 l/m 6,6 km/h (2 Bft) W-SW 247 0 min 0,0 UV-I 11,1 C 14,4 C 9,3 km/h (2 Bft)
09.09.2013 11:30 12,7 C 23,9 C 13,9 C 14,4 C 14,4 C 1,7 C 90 % 89 % 45 % 1014,9 hPa 0,0 l/m 7,1 km/h (2 Bft) W-NW 292 0 min 0,0 UV-I 11,1 C 14,4 C 7,6 km/h (2 Bft)
09.09.2013 11:35 12,7 C 23,8 C 14,0 C 14,7 C 14,7 C 2,0 C 90 % 89 % 53 % 1015,1 hPa 0,0 l/m 7,1 km/h (2 Bft) W-SW 247 0 min 0,0 UV-I 11,1 C 14,7 C 13,0 km/h (3 Bft)
09.09.2013 11:40 12,9 C 23,8 C 14,1 C 15,0 C 15,0 C 2,1 C 90 % 89 % 55 % 1015,1 hPa 0,0 l/m 6,1 km/h (2 Bft) SW 225 0 min 0,0 UV-I 11,3 C 15,0 C 8,2 km/h (2 Bft)
09.09.2013 11:45 12,8 C 23,8 C 14,1 C 14,8 C 14,8 C 2,0 C 89 % 89 % 53 % 1015,1 hPa 0,0 l/m 6,6 km/h (2 Bft) S 180 0 min 0,0 UV-I 11,0 C 14,8 C 3,1 km/h (1 Bft)
09.09.2013 11:50 12,8 C 23,8 C 14,3 C 15,1 C 15,1 C 2,3 C 90 % 89 % 61 % 1015,1 hPa 0,0 l/m 6,8 km/h (2 Bft) S 180 0 min 0,0 UV-I 11,2 C 15,1 C 8,5 km/h (2 Bft)
09.09.2013 11:55 12,8 C 23,8 C 14,3 C 14,9 C 14,9 C 2,1 C 89 % 88 % 55 % 1015,2 hPa 0,0 l/m 6,6 km/h (2 Bft) W 270 0 min 0,0 UV-I 11,0 C 14,9 C 10,3 km/h (2 Bft)
09.09.2013 12:00 12,8 C 23,8 C 14,1 C 14,7 C 14,6 C 1,9 C 89 % 88 % 50 % 1015,2 hPa 0,0 l/m 7,9 km/h (2 Bft) W 270 0 min 0,0 UV-I 11,0 C 14,6 C 10,6 km/h (2 Bft)
09.09.2013 12:05 12,8 C 23,8 C 14,3 C 14,7 C 14,7 C 1,9 C 89 % 88 % 50 % 1015,2 hPa 0,0 l/m 7,2 km/h (2 Bft) N-NO 22 0 min 0,0 UV-I 11,0 C 14,7 C 5,8 km/h (2 Bft)
09.09.2013 12:10 12,8 C 23,9 C 14,3 C 14,6 C 14,6 C 1,8 C 89 % 88 % 47 % 1015,2 hPa 0,7 l/m 6,0 km/h (2 Bft) N 360 0 min 0,0 UV-I 11,0 C 14,6 C 8,7 km/h (2 Bft)
09.09.2013 12:15 12,7 C 23,8 C 14,1 C 14,2 C 14,2 C 1,5 C 89 % 88 % 39 % 1015,2 hPa 0,0 l/m 5,8 km/h (2 Bft) W-SW 247 0 min 0,0 UV-I 10,9 C 14,2 C 8,9 km/h (2 Bft)
09.09.2013 12:20 12,5 C 23,8 C 14,0 C 13,9 C 13,9 C 1,4 C 89 % 88 % 37 % 1015,2 hPa 0,0 l/m 6,1 km/h (2 Bft) SW 225 0 min 0,0 UV-I 10,7 C 13,9 C 7,2 km/h (2 Bft)
09.09.2013 12:25 12,5 C 23,8 C 14,1 C 13,9 C 13,9 C 1,4 C 89 % 88 % 37 % 1015,2 hPa 0,0 l/m 5,8 km/h (2 Bft) SW 225 0 min 0,0 UV-I 10,7 C 13,9 C 10,8 km/h (2 Bft)
09.09.2013 12:30 12,5 C 23,8 C 14,1 C 13,7 C 13,7 C 1,2 C 89 % 88 % 32 % 1015,2 hPa 0,0 l/m 5,1 km/h (1 Bft) S-SO 157 0 min 0,0 UV-I 10,7 C 13,7 C 6,6 km/h (2 Bft)
09.09.2013 12:35 12,4 C 23,8 C 14,1 C 13,7 C 13,7 C 1,3 C 89 % 88 % 34 % 1015,3 hPa 0,0 l/m 5,1 km/h (1 Bft) NW 315 0 min 0,0 UV-I 10,6 C 13,7 C 7,6 km/h (2 Bft)
09.09.2013 12:40 12,4 C 23,8 C 14,1 C 13,8 C 13,8 C 1,4 C 89 % 88 % 37 % 1015,3 hPa 0,0 l/m 5,5 km/h (1 Bft) SW 225 0 min 0,0 UV-I 10,6 C 13,8 C 8,2 km/h (2 Bft)
09.09.2013 12:45 12,4 C 23,8 C 14,1 C 13,7 C 13,7 C 1,3 C 89 % 88 % 34 % 1015,3 hPa 0,0 l/m 5,5 km/h (1 Bft) S 180 0 min 0,0 UV-I 10,6 C 13,7 C 8,2 km/h (2 Bft)
09.09.2013 12:50 12,4 C 23,8 C 13,9 C 13,6 C 13,6 C 1,2 C 89 % 88 % 32 % 1015,3 hPa 0,0 l/m 5,0 km/h (1 Bft) SW 225 0 min 0,0 UV-I 10,6 C 13,6 C 4,3 km/h (1 Bft)
09.09.2013 12:55 12,3 C 23,8 C 13,9 C 13,4 C 13,4 C 1,1 C 89 % 88 % 29 % 1015,6 hPa 0,0 l/m 5,3 km/h (1 Bft) W 270 0 min 0,0 UV-I 10,5 C 13,4 C 5,3 km/h (1 Bft)
09.09.2013 13:00 12,1 C 23,9 C 13,8 C 13,2 C 13,2 C 1,1 C 89 % 88 % 29 % 1015,6 hPa 0,0 l/m 4,8 km/h (1 Bft) W-SW 247 0 min 0,0 UV-I 10,3 C 13,2 C 4,2 km/h (1 Bft)
09.09.2013 13:05 12,1 C 23,8 C 13,8 C 13,2 C 13,2 C 1,1 C 89 % 88 % 29 % 1015,6 hPa 0,0 l/m 4,7 km/h (1 Bft) W-NW 292 0 min 0,0 UV-I 10,3 C 13,2 C 2,4 km/h (1 Bft)
09.09.2013 13:10 12,0 C 23,8 C 13,6 C 13,2 C 13,2 C 1,2 C 89 % 88 % 32 % 1015,6 hPa 0,0 l/m 4,2 km/h (1 Bft) SW 225 0 min 0,0 UV-I 10,2 C 13,2 C 4,8 km/h (1 Bft)
09.09.2013 13:15 12,0 C 23,8 C 13,7 C 13,2 C 13,2 C 1,2 C 89 % 88 % 32 % 1015,8 hPa 0,0 l/m 3,4 km/h (1 Bft) SW 225 0 min 0,0 UV-I 10,2 C 13,2 C 5,6 km/h (1 Bft)
09.09.2013 13:20 12,1 C 23,8 C 14,0 C 13,5 C 13,5 C 1,4 C 89 % 88 % 37 % 1015,8 hPa 0,0 l/m 2,7 km/h (1 Bft) NW 315 0 min 0,0 UV-I 10,3 C 13,5 C 2,1 km/h (1 Bft)
09.09.2013 13:25 12,2 C 23,8 C 14,0 C 13,6 C 13,6 C 1,4 C 89 % 88 % 37 % 1015,8 hPa 0,0 l/m 2,7 km/h (1 Bft) W-SW 247 0 min 0,0 UV-I 10,4 C 13,6 C 7,4 km/h (2 Bft)
09.09.2013 13:30 12,1 C 23,8 C 13,6 C 13,2 C 13,2 C 1,1 C 89 % 88 % 29 % 1015,8 hPa 0,7 l/m 3,4 km/h (1 Bft) S 180 0 min 0,0 UV-I 10,3 C 13,2 C 4,8 km/h (1 Bft)
09.09.2013 13:35 12,1 C 23,9 C 13,6 C 13,0 C 13,0 C 0,9 C 89 % 88 % 24 % 1016,2 hPa 0,0 l/m 3,9 km/h (1 Bft) SO 135 0 min 0,0 UV-I 10,3 C 13,0 C 2,6 km/h (1 Bft)
09.09.2013 13:40 12,0 C 23,8 C 13,6 C 13,1 C 13,1 C 1,1 C 89 % 88 % 29 % 1016,2 hPa 0,0 l/m 3,5 km/h (1 Bft) W-SW 247 0 min 0,0 UV-I 10,2 C 13,1 C 8,5 km/h (2 Bft)
09.09.2013 13:45 12,0 C 23,8 C 13,6 C 13,1 C 13,1 C 1,1 C 89 % 88 % 29 % 1016,2 hPa 0,0 l/m 3,5 km/h (1 Bft) SW 225 0 min 0,0 UV-I 10,2 C 13,1 C 7,2 km/h (2 Bft)
09.09.2013 13:50 12,1 C 23,8 C 13,6 C 13,2 C 13,2 C 1,1 C 90 % 88 % 29 % 1016,2 hPa 0,0 l/m 3,2 km/h (1 Bft) SW 225 0 min 0,0 UV-I 10,5 C 13,2 C 3,4 km/h (1 Bft)
09.09.2013 13:55 12,0 C 23,8 C 13,9 C 13,4 C 13,4 C 1,4 C 90 % 88 % 37 % 1016,2 hPa 0,0 l/m 3,4 km/h (1 Bft) SW 225 0 min 0,0 UV-I 10,4 C 13,4 C 2,1 km/h (1 Bft)
09.09.2013 14:00 12,1 C 23,8 C 13,9 C 13,6 C 13,6 C 1,5 C 90 % 88 % 39 % 1016,2 hPa 0,0 l/m 2,9 km/h (1 Bft) W 270 0 min 0,0 UV-I 10,5 C 13,6 C 1,6 km/h (1 Bft)
09.09.2013 14:05 12,3 C 23,8 C 13,9 C 13,6 C 13,6 C 1,3 C 90 % 88 % 34 % 1016,2 hPa 0,0 l/m 2,6 km/h (1 Bft) SO 135 0 min 0,0 UV-I 10,7 C 13,6 C 4,8 km/h (1 Bft)
09.09.2013 14:10 12,3 C 23,8 C 13,9 C 13,5 C 13,5 C 1,2 C 90 % 88 % 32 % 1016,2 hPa 0,0 l/m 3,1 km/h (1 Bft) SW 225 0 min 0,0 UV-I 10,7 C 13,5 C 4,0 km/h (1 Bft)
09.09.2013 14:15 12,2 C 23,8 C 14,0 C 13,6 C 13,6 C 1,4 C 90 % 88 % 37 % 1016,2 hPa 0,0 l/m 2,7 km/h (1 Bft) W-SW 247 0 min 0,0 UV-I 10,6 C 13,6 C 3,7 km/h (1 Bft)
09.09.2013 14:20 12,3 C 23,8 C 14,1 C 13,7 C 13,7 C 1,4 C 90 % 88 % 37 % 1016,2 hPa 0,0 l/m 2,3 km/h (1 Bft) W 270 0 min 0,0 UV-I 10,7 C 13,7 C 2,3 km/h (1 Bft)
09.09.2013 14:25 12,3 C 23,8 C 14,2 C 13,9 C 13,9 C 1,6 C 90 % 88 % 42 % 1016,2 hPa 0,0 l/m 1,9 km/h (1 Bft) O-SO 112 0 min 0,0 UV-I 10,7 C 13,9 C 2,6 km/h (1 Bft)
09.09.2013 14:30 12,3 C 23,8 C 14,1 C 13,6 C 13,6 C 1,3 C 90 % 88 % 34 % 1016,2 hPa 0,0 l/m 2,4 km/h (1 Bft) S-SW 202 0 min 0,0 UV-I 10,7 C 13,6 C 3,4 km/h (1 Bft)
09.09.2013 14:35 12,3 C 23,7 C 13,9 C 13,4 C 13,4 C 1,1 C 90 % 88 % 29 % 1016,4 hPa 0,0 l/m 2,7 km/h (1 Bft) S 180 0 min 0,0 UV-I 10,7 C 13,4 C 0,0 km/h (0 Bft)
09.09.2013 14:40 12,3 C 23,8 C 13,9 C 13,2 C 13,2 C 0,9 C 90 % 88 % 24 % 1016,4 hPa 0,7 l/m 1,9 km/h (1 Bft) W 270 0 min 0,0 UV-I 10,7 C 13,2 C 1,9 km/h (1 Bft)
09.09.2013 14:45 12,2 C 23,8 C 14,0 C 13,2 C 13,2 C 1,0 C 89 % 88 % 26 % 1016,4 hPa 0,0 l/m 1,3 km/h (1 Bft) S 180 0 min 0,0 UV-I 10,4 C 13,2 C 3,7 km/h (1 Bft)
09.09.2013 14:50 12,3 C 23,8 C 14,0 C 13,3 C 13,3 C 1,0 C 90 % 88 % 26 % 1016,4 hPa 0,0 l/m 1,3 km/h (1 Bft) SW 225 0 min 0,0 UV-I 10,7 C 13,3 C 2,7 km/h (1 Bft)
09.09.2013 14:55 12,2 C 23,8 C 13,9 C 13,2 C 13,2 C 1,0 C 89 % 88 % 26 % 1016,4 hPa 0,0 l/m 1,9 km/h (1 Bft) W-SW 247 0 min 0,0 UV-I 10,4 C 13,2 C 4,5 km/h (1 Bft)
09.09.2013 15:00 12,3 C 23,8 C 13,8 C 13,2 C 13,2 C 0,9 C 90 % 88 % 24 % 1016,4 hPa 0,0 l/m 2,4 km/h (1 Bft) S 180 0 min 0,0 UV-I 10,7 C 13,2 C 7,9 km/h (2 Bft)
09.09.2013 15:05 12,3 C 23,8 C 14,0 C 13,3 C 13,3 C 1,0 C 90 % 88 % 26 % 1016,4 hPa 0,0 l/m 2,6 km/h (1 Bft) W-SW 247 0 min 0,0 UV-I 10,7 C 13,3 C 2,7 km/h (1 Bft)
09.09.2013 15:10 12,4 C 23,8 C 14,0 C 13,6 C 13,6 C 1,2 C 90 % 88 % 32 % 1016,4 hPa 0,0 l/m 2,9 km/h (1 Bft) W-SW 247 0 min 0,0 UV-I 10,8 C 13,6 C 4,8 km/h (1 Bft)
09.09.2013 15:15 12,4 C 23,8 C 14,0 C 13,6 C 13,6 C 1,2 C 90 % 88 % 32 % 1016,6 hPa 0,7 l/m 2,7 km/h (1 Bft) SW 225 0 min 0,0 UV-I 10,8 C 13,6 C 3,1 km/h (1 Bft)
09.09.2013 15:20 12,3 C 23,8 C 13,9 C 13,4 C 13,4 C 1,1 C 89 % 88 % 29 % 1016,6 hPa 0,0 l/m 3,9 km/h (1 Bft) W-SW 247 0 min 0,0 UV-I 10,5 C 13,4 C 8,2 km/h (2 Bft)
09.09.2013 15:25 12,3 C 23,8 C 13,9 C 13,2 C 13,2 C 0,9 C 89 % 88 % 24 % 1016,6 hPa 0,0 l/m 3,7 km/h (1 Bft) SW 225 0 min 0,0 UV-I 10,5 C 13,2 C 0,0 km/h (0 Bft)
09.09.2013 15:30 12,4 C 23,8 C 14,0 C 13,4 C 13,4 C 1,0 C 90 % 88 % 26 % 1016,6 hPa 0,0 l/m 2,3 km/h (1 Bft) SO 135 0 min 0,0 UV-I 10,8 C 13,4 C 3,2 km/h (1 Bft)
09.09.2013 15:35 12,5 C 23,8 C 14,0 C 13,6 C 13,6 C 1,1 C 90 % 88 % 29 % 1016,2 hPa 0,0 l/m 2,1 km/h (1 Bft) W-SW 247 0 min 0,0 UV-I 10,9 C 13,6 C 4,3 km/h (1 Bft)
09.09.2013 15:40 12,7 C 23,8 C 14,1 C 13,9 C 13,9 C 1,2 C 90 % 88 % 32 % 1016,2 hPa 0,0 l/m 2,9 km/h (1 Bft) W-SW 247 0 min 0,0 UV-I 11,1 C 13,9 C 4,2 km/h (1 Bft)
09.09.2013 15:45 12,8 C 23,8 C 14,4 C 14,4 C 14,4 C 1,6 C 90 % 88 % 42 % 1016,2 hPa 0,0 l/m 2,6 km/h (1 Bft) S 180 0 min 0,0 UV-I 11,2 C 14,4 C 5,5 km/h (1 Bft)
09.09.2013 15:50 12,9 C 23,8 C 14,4 C 14,7 C 14,7 C 1,8 C 90 % 88 % 47 % 1016,2 hPa 0,0 l/m 2,6 km/h (1 Bft) SW 225 0 min 0,0 UV-I 11,3 C 14,7 C 2,6 km/h (1 Bft)
09.09.2013 15:55 13,1 C 23,6 C 14,7 C 15,0 C 15,0 C 1,9 C 90 % 88 % 50 % 1016,4 hPa 0,0 l/m 2,9 km/h (1 Bft) SW 225 0 min 0,0 UV-I 11,5 C 15,0 C 4,0 km/h (1 Bft)
09.09.2013 16:00 13,6 C 23,8 C 15,1 C 16,6 C 16,6 C 3,0 C 91 % 88 % 79 % 1016,4 hPa 0,0 l/m 1,9 km/h (1 Bft) NW 315 0 min 0,0 UV-I 12,2 C 16,6 C 2,9 km/h (1 Bft)
09.09.2013 16:05 13,5 C 23,6 C 15,0 C 16,6 C 16,6 C 3,1 C 90 % 88 % 82 % 1016,4 hPa 0,0 l/m 2,9 km/h (1 Bft) W 270 0 min 0,0 UV-I 11,9 C 16,6 C 2,9 km/h (1 Bft)
09.09.2013 16:10 13,3 C 23,6 C 14,7 C 15,7 C 15,7 C 2,4 C 88 % 88 % 63 % 1016,4 hPa 0,0 l/m 3,7 km/h (1 Bft) SW 225 0 min 0,0 UV-I 11,4 C 15,7 C 3,7 km/h (1 Bft)
09.09.2013 16:15 13,2 C 23,6 C 14,7 C 15,3 C 15,3 C 2,1 C 88 % 88 % 55 % 1016,7 hPa 0,0 l/m 3,4 km/h (1 Bft) W 270 0 min 0,0 UV-I 11,3 C 15,3 C 2,6 km/h (1 Bft)
09.09.2013 16:20 13,3 C 23,8 C 14,5 C 14,8 C 14,8 C 1,5 C 88 % 88 % 39 % 1016,7 hPa 0,0 l/m 2,3 km/h (1 Bft) W-SW 247 0 min 0,0 UV-I 11,4 C 14,8 C 0,0 km/h (0 Bft)
09.09.2013 16:25 13,2 C 23,8 C 14,4 C 14,5 C 14,5 C 1,3 C 88 % 88 % 34 % 1016,7 hPa 0,0 l/m 1,6 km/h (1 Bft) SW 225 0 min 0,0 UV-I 11,3 C 14,5 C 0,0 km/h (0 Bft)
09.09.2013 16:30 13,1 C 23,8 C 14,4 C 14,1 C 14,1 C 1,0 C 88 % 88 % 26 % 1016,7 hPa 0,0 l/m 1,6 km/h (1 Bft) W-SW 247 0 min 0,0 UV-I 11,2 C 14,1 C 2,3 km/h (1 Bft)
09.09.2013 16:35 13,1 C 23,6 C 14,4 C 13,9 C 13,9 C 0,8 C 88 % 88 % 21 % 1016,3 hPa 0,0 l/m 1,6 km/h (1 Bft) S 180 0 min 0,0 UV-I 11,2 C 13,9 C 1,6 km/h (1 Bft)
09.09.2013 16:40 13,1 C 23,6 C 14,4 C 14,0 C 14,0 C 0,9 C 88 % 88 % 24 % 1016,3 hPa 0,0 l/m 1,1 km/h (1 Bft) W-SW 247 0 min 0,0 UV-I 11,2 C 14,0 C 4,0 km/h (1 Bft)
09.09.2013 16:45 13,1 C 23,6 C 14,4 C 14,3 C 14,3 C 1,2 C 88 % 88 % 32 % 1016,3 hPa 0,0 l/m 1,4 km/h (1 Bft) S 180 0 min 0,0 UV-I 11,2 C 14,3 C 1,6 km/h (1 Bft)
09.09.2013 16:50 13,2 C 23,6 C 14,6 C 14,6 C 14,6 C 1,4 C 88 % 88 % 37 % 1016,3 hPa 0,0 l/m 1,3 km/h (1 Bft) W 270 0 min 0,0 UV-I 11,3 C 14,6 C 2,3 km/h (1 Bft)
09.09.2013 16:55 13,2 C 23,6 C 14,5 C 14,6 C 14,6 C 1,4 C 88 % 88 % 37 % 1016,7 hPa 0,0 l/m 1,4 km/h (1 Bft) W-SW 247 0 min 0,0 UV-I 11,3 C 14,6 C 2,7 km/h (1 Bft)
09.09.2013 17:00 13,2 C 23,5 C 14,4 C 14,5 C 14,5 C 1,3 C 88 % 88 % 34 % 1016,7 hPa 0,0 l/m 1,8 km/h (1 Bft) SW 225 0 min 0,0 UV-I 11,3 C 14,5 C 1,6 km/h (1 Bft)
09.09.2013 17:05 13,2 C 23,5 C 14,5 C 14,5 C 14,5 C 1,3 C 88 % 88 % 34 % 1016,7 hPa 0,0 l/m 2,1 km/h (1 Bft) S 180 0 min 0,0 UV-I 11,3 C 14,5 C 4,3 km/h (1 Bft)
09.09.2013 17:10 13,3 C 23,5 C 14,4 C 14,5 C 14,5 C 1,2 C 87 % 88 % 32 % 1016,7 hPa 0,0 l/m 3,1 km/h (1 Bft) S 180 0 min 0,0 UV-I 11,2 C 14,5 C 2,9 km/h (1 Bft)
09.09.2013 17:15 13,3 C 23,4 C 14,5 C 14,6 C 14,6 C 1,3 C 87 % 88 % 34 % 1016,6 hPa 0,0 l/m 3,9 km/h (1 Bft) SW 225 0 min 0,0 UV-I 11,2 C 14,6 C 6,0 km/h (2 Bft)
09.09.2013 17:20 13,3 C 23,4 C 14,3 C 14,6 C 14,6 C 1,3 C 86 % 88 % 34 % 1016,6 hPa 0,0 l/m 4,5 km/h (1 Bft) S-SW 202 0 min 0,0 UV-I 11,0 C 14,6 C 5,5 km/h (1 Bft)
09.09.2013 17:25 13,3 C 23,4 C 14,3 C 14,5 C 14,5 C 1,2 C 86 % 88 % 32 % 1016,6 hPa 0,0 l/m 5,1 km/h (1 Bft) S-SW 202 0 min 0,0 UV-I 11,0 C 14,5 C 4,8 km/h (1 Bft)
09.09.2013 17:30 13,3 C 23,4 C 14,3 C 14,5 C 14,5 C 1,2 C 86 % 88 % 32 % 1016,6 hPa 0,0 l/m 4,3 km/h (1 Bft) SW 225 0 min 0,0 UV-I 11,0 C 14,5 C 10,9 km/h (2 Bft)
09.09.2013 17:35 13,3 C 23,4 C 14,1 C 14,4 C 14,4 C 1,1 C 86 % 88 % 29 % 1016,8 hPa 0,0 l/m 4,0 km/h (1 Bft) S 180 0 min 0,0 UV-I 11,0 C 14,4 C 7,9 km/h (2 Bft)
09.09.2013 17:40 13,3 C 23,3 C 13,9 C 14,0 C 14,0 C 0,7 C 85 % 87 % 18 % 1016,8 hPa 0,0 l/m 4,3 km/h (1 Bft) W-SW 247 0 min 0,0 UV-I 10,8 C 14,0 C 3,9 km/h (1 Bft)
09.09.2013 17:45 13,3 C 23,4 C 13,9 C 13,7 C 13,7 C 0,4 C 85 % 87 % 11 % 1016,8 hPa 0,0 l/m 4,7 km/h (1 Bft) W 270 0 min 0,0 UV-I 10,8 C 13,7 C 3,9 km/h (1 Bft)
09.09.2013 17:50 13,1 C 23,4 C 13,9 C 13,2 C 13,2 C 0,1 C 85 % 87 % 3 % 1016,8 hPa 0,0 l/m 4,0 km/h (1 Bft) W 270 0 min 0,0 UV-I 10,6 C 13,2 C 5,3 km/h (1 Bft)
09.09.2013 17:55 13,1 C 23,4 C 13,8 C 13,1 C 13,0 C 0,0 C 85 % 87 % 0 % 1016,6 hPa 0,7 l/m 4,0 km/h (1 Bft) S 180 0 min 0,0 UV-I 10,6 C 13,0 C 5,0 km/h (1 Bft)
09.09.2013 18:00 12,9 C 23,4 C 13,7 C 12,9 C 12,9 C 0,0 C 86 % 87 % 0 % 1016,6 hPa 0,0 l/m 3,4 km/h (1 Bft) S-SW 202 0 min 0,0 UV-I 10,6 C 12,9 C 3,5 km/h (1 Bft)
09.09.2013 18:05 12,8 C 23,5 C 13,7 C 12,8 C 12,8 C 0,0 C 86 % 87 % 0 % 1016,6 hPa 0,0 l/m 2,3 km/h (1 Bft) W-NW 292 0 min 0,0 UV-I 10,5 C 12,8 C 1,8 km/h (1 Bft)
09.09.2013 18:10 12,6 C 23,5 C 13,7 C 12,9 C 12,9 C 0,3 C 86 % 87 % 8 % 1016,6 hPa 0,0 l/m 0,8 km/h (0 Bft) SO 135 0 min 0,0 UV-I 10,3 C 12,9 C 0,0 km/h (0 Bft)
09.09.2013 18:15 12,7 C 23,4 C 13,8 C 13,3 C 13,3 C 0,6 C 86 % 87 % 16 % 1016,9 hPa 0,0 l/m 0,6 km/h (0 Bft) S-SO 157 0 min 0,0 UV-I 10,4 C 13,3 C 3,2 km/h (1 Bft)
09.09.2013 18:20 12,7 C 23,5 C 13,8 C 14,0 C 14,0 C 1,3 C 87 % 87 % 34 % 1016,9 hPa 0,0 l/m 0,6 km/h (0 Bft) O-NO 67 0 min 0,0 UV-I 10,6 C 14,0 C 0,0 km/h (0 Bft)
09.09.2013 18:25 12,6 C 23,5 C 13,8 C 14,1 C 14,1 C 1,5 C 87 % 87 % 39 % 1016,9 hPa 0,0 l/m 0,5 km/h (0 Bft) S 180 0 min 0,0 UV-I 10,5 C 14,1 C 0,0 km/h (0 Bft)
09.09.2013 18:30 12,7 C 23,5 C 13,7 C 13,9 C 13,9 C 1,2 C 87 % 87 % 32 % 1016,9 hPa 0,0 l/m 0,2 km/h (0 Bft) O-SO 112 0 min 0,0 UV-I 10,6 C 13,9 C 0,0 km/h (0 Bft)
09.09.2013 18:35 12,7 C 23,5 C 13,6 C 13,5 C 13,5 C 0,8 C 87 % 88 % 21 % 1016,9 hPa 0,0 l/m 0,0 km/h (0 Bft) O 90 0 min 0,0 UV-I 10,6 C 13,5 C 0,0 km/h (0 Bft)
09.09.2013 18:40 12,4 C 23,6 C 13,5 C 13,1 C 13,1 C 0,7 C 86 % 88 % 18 % 1016,9 hPa 0,0 l/m 0,0 km/h (0 Bft) O 90 0 min 0,0 UV-I 10,1 C 13,1 C 0,0 km/h (0 Bft)
09.09.2013 18:45 12,4 C 23,6 C 13,5 C 13,2 C 13,2 C 0,8 C 86 % 88 % 21 % 1016,9 hPa 0,0 l/m 0,0 km/h (0 Bft) NO 45 0 min 0,0 UV-I 10,1 C 13,2 C 0,0 km/h (0 Bft)
09.09.2013 18:50 12,2 C 23,6 C 13,3 C 13,2 C 13,2 C 1,0 C 87 % 88 % 26 % 1016,9 hPa 0,0 l/m 0,0 km/h (0 Bft) NW 315 0 min 0,0 UV-I 10,1 C 13,2 C 0,0 km/h (0 Bft)
09.09.2013 18:55 12,2 C 23,7 C 13,2 C 12,8 C 12,8 C 0,6 C 87 % 88 % 16 % 1016,9 hPa 0,0 l/m 0,0 km/h (0 Bft) W-SW 247 0 min 0,0 UV-I 10,1 C 12,8 C 0,0 km/h (0 Bft)
09.09.2013 19:00 12,0 C 23,6 C 13,2 C 12,4 C 12,4 C 0,4 C 87 % 88 % 11 % 1016,9 hPa 0,0 l/m 0,0 km/h (0 Bft) W 270 0 min 0,0 UV-I 9,9 C 12,4 C 0,0 km/h (0 Bft)
09.09.2013 19:05 12,0 C 23,6 C 13,1 C 12,2 C 12,2 C 0,2 C 87 % 88 % 5 % 1016,9 hPa 0,0 l/m 0,0 km/h (0 Bft) O-NO 67 0 min 0,0 UV-I 9,9 C 12,2 C 0,0 km/h (0 Bft)
09.09.2013 19:10 11,9 C 23,6 C 12,9 C 11,9 C 11,9 C 0,0 C 87 % 88 % 0 % 1016,9 hPa 0,0 l/m 0,0 km/h (0 Bft) O-NO 67 0 min 0,0 UV-I 9,8 C 11,9 C 0,0 km/h (0 Bft)
09.09.2013 19:15 11,7 C 23,6 C 12,8 C 11,8 C 11,8 C 0,1 C 87 % 88 % 3 % 1017,0 hPa 0,0 l/m 0,0 km/h (0 Bft) NO 45 0 min 0,0 UV-I 9,6 C 11,8 C 0,0 km/h (0 Bft)
09.09.2013 19:20 11,6 C 23,6 C 12,8 C 11,7 C 11,7 C 0,1 C 87 % 88 % 3 % 1017,0 hPa 0,0 l/m 0,0 km/h (0 Bft) NO 45 0 min 0,0 UV-I 9,5 C 11,7 C 0,0 km/h (0 Bft)
09.09.2013 19:25 11,5 C 23,6 C 12,8 C 11,7 C 11,7 C 0,2 C 87 % 88 % 5 % 1017,0 hPa 0,0 l/m 0,0 km/h (0 Bft) NO 45 5 min 0,0 UV-I 9,4 C 11,7 C 0,0 km/h (0 Bft)
09.09.2013 19:30 11,5 C 23,6 C 12,8 C 11,6 C 11,6 C 0,1 C 87 % 88 % 0 % 1017,0 hPa 0,0 l/m 0,0 km/h (0 Bft) O-NO 67 0 min 0,0 UV-I 9,4 C 11,6 C 0,0 km/h (0 Bft)
09.09.2013 19:35 11,4 C 23,6 C 12,8 C 11,6 C 11,6 C 0,2 C 87 % 88 % 0 % 1017,1 hPa 0,0 l/m 0,0 km/h (0 Bft) O-NO 67 0 min 0,0 UV-I 9,3 C 11,6 C 0,0 km/h (0 Bft)
09.09.2013 19:40 11,3 C 23,6 C 12,7 C 11,6 C 11,6 C 0,3 C 87 % 88 % 0 % 1017,1 hPa 0,0 l/m 0,0 km/h (0 Bft) O-NO 67 0 min 0,0 UV-I 9,2 C 11,6 C 0,0 km/h (0 Bft)
09.09.2013 19:45 11,2 C 23,6 C 12,7 C 11,4 C 11,4 C 0,2 C 87 % 88 % 0 % 1017,1 hPa 0,0 l/m 0,0 km/h (0 Bft) O-NO 67 0 min 0,0 UV-I 9,1 C 11,4 C 0,0 km/h (0 Bft)
09.09.2013 19:50 11,1 C 23,6 C 12,3 C 11,1 C 11,0 C 0,0 C 88 % 88 % 0 % 1017,1 hPa 0,0 l/m 0,0 km/h (0 Bft) N-NO 22 0 min 0,0 UV-I 9,2 C 11,0 C 0,0 km/h (0 Bft)
09.09.2013 19:55 11,1 C 23,6 C 12,2 C 11,0 C 10,8 C 0,0 C 88 % 88 % 0 % 1016,9 hPa 0,0 l/m 0,0 km/h (0 Bft) O 90 0 min 0,0 UV-I 9,2 C 10,8 C 0,0 km/h (0 Bft)
09.09.2013 20:00 10,8 C 23,6 C 12,1 C 10,7 C 10,5 C 0,0 C 87 % 88 % 0 % 1016,9 hPa 0,0 l/m 0,0 km/h (0 Bft) O-NO 67 0 min 0,0 UV-I 8,7 C 10,5 C 0,0 km/h (0 Bft)
09.09.2013 20:05 10,7 C 23,6 C 12,0 C 10,6 C 10,4 C 0,0 C 87 % 88 % 0 % 1016,9 hPa 0,0 l/m 0,0 km/h (0 Bft) O-SO 112 0 min 0,0 UV-I 8,6 C 10,4 C 0,0 km/h (0 Bft)
09.09.2013 20:10 10,7 C 23,6 C 11,8 C 10,5 C 10,1 C 0,0 C 87 % 88 % 0 % 1016,9 hPa 0,0 l/m 0,0 km/h (0 Bft) O 90 0 min 0,0 UV-I 8,6 C 10,1 C 0,0 km/h (0 Bft)
09.09.2013 20:15 10,5 C 23,6 C 11,9 C 10,3 C 10,0 C 0,0 C 87 % 88 % 0 % 1016,9 hPa 0,0 l/m 0,0 km/h (0 Bft) O-SO 112 0 min 0,0 UV-I 8,4 C 10,0 C 0,0 km/h (0 Bft)
09.09.2013 20:20 10,4 C 23,6 C 11,7 C 10,2 C 9,8 C 0,0 C 87 % 88 % 0 % 1016,9 hPa 0,0 l/m 0,0 km/h (0 Bft) O-NO 67 0 min 0,0 UV-I 8,3 C 9,8 C 0,0 km/h (0 Bft)
09.09.2013 20:25 10,2 C 23,5 C 11,6 C 10,1 C 9,8 C 0,0 C 88 % 88 % 0 % 1016,9 hPa 0,0 l/m 0,0 km/h (0 Bft) SO 135 0 min 0,0 UV-I 8,3 C 9,8 C 0,0 km/h (0 Bft)
09.09.2013 20:30 10,1 C 23,6 C 11,4 C 10,0 C 9,8 C 0,0 C 88 % 88 % 0 % 1016,9 hPa 0,0 l/m 0,0 km/h (0 Bft) O-SO 112 0 min 0,0 UV-I 8,2 C 9,8 C 0,0 km/h (0 Bft)
09.09.2013 20:35 10,0 C 23,5 C 11,4 C 9,9 C 9,7 C 0,0 C 88 % 88 % 0 % 1016,9 hPa 0,0 l/m 0,0 km/h (0 Bft) S-SO 157 0 min 0,0 UV-I 8,1 C 9,7 C 0,0 km/h (0 Bft)
09.09.2013 20:40 10,0 C 23,5 C 11,4 C 9,8 C 9,5 C 0,0 C 88 % 88 % 0 % 1016,9 hPa 0,0 l/m 0,0 km/h (0 Bft) SW 225 0 min 0,0 UV-I 8,1 C 9,5 C 0,0 km/h (0 Bft)
09.09.2013 20:45 9,9 C 23,5 C 11,3 C 9,8 C 9,5 C 0,0 C 88 % 89 % 0 % 1016,9 hPa 0,0 l/m 0,0 km/h (0 Bft) SW 225 0 min 0,0 UV-I 8,0 C 9,5 C 0,0 km/h (0 Bft)
09.09.2013 20:50 9,7 C 23,5 C 11,2 C 9,6 C 9,4 C 0,0 C 88 % 89 % 0 % 1016,9 hPa 0,0 l/m 0,0 km/h (0 Bft) S 180 0 min 0,0 UV-I 7,8 C 9,4 C 0,0 km/h (0 Bft)
09.09.2013 20:55 9,6 C 23,5 C 11,2 C 9,5 C 9,3 C 0,0 C 88 % 89 % 0 % 1017,0 hPa 0,0 l/m 0,0 km/h (0 Bft) O 90 0 min 0,0 UV-I 7,7 C 9,3 C 0,0 km/h (0 Bft)
09.09.2013 21:00 9,6 C 23,5 C 11,1 C 9,5 C 9,3 C 0,0 C 88 % 89 % 0 % 1017,0 hPa 0,0 l/m 0,0 km/h (0 Bft) O 90 0 min 0,0 UV-I 7,7 C 9,3 C 0,0 km/h (0 Bft)
09.09.2013 21:05 9,6 C 23,5 C 11,1 C 9,5 C 9,3 C 0,0 C 88 % 89 % 0 % 1017,0 hPa 0,0 l/m 0,0 km/h (0 Bft) O 90 0 min 0,0 UV-I 7,7 C 9,3 C 0,0 km/h (0 Bft)
09.09.2013 21:10 9,5 C 23,5 C 10,8 C 9,4 C 9,3 C 0,0 C 88 % 89 % 0 % 1017,0 hPa 0,0 l/m 0,0 km/h (0 Bft) O 90 0 min 0,0 UV-I 7,6 C 9,3 C 0,0 km/h (0 Bft)
09.09.2013 21:15 9,4 C 23,5 C 10,9 C 9,3 C 9,1 C 0,0 C 88 % 89 % 0 % 1017,0 hPa 0,0 l/m 0,0 km/h (0 Bft) O 90 0 min 0,0 UV-I 7,5 C 9,1 C 0,0 km/h (0 Bft)
09.09.2013 21:20 9,3 C 23,5 C 10,8 C 9,2 C 9,1 C 0,0 C 89 % 89 % 0 % 1017,0 hPa 0,0 l/m 0,0 km/h (0 Bft) O 90 0 min 0,0 UV-I 7,6 C 9,1 C 0,0 km/h (0 Bft)
09.09.2013 21:25 9,3 C 23,5 C 10,7 C 9,2 C 9,0 C 0,0 C 89 % 89 % 0 % 1017,0 hPa 0,0 l/m 0,0 km/h (0 Bft) O 90 0 min 0,0 UV-I 7,6 C 9,0 C 0,0 km/h (0 Bft)
09.09.2013 21:30 9,3 C 23,5 C 10,6 C 9,2 C 8,9 C 0,0 C 89 % 89 % 0 % 1017,0 hPa 0,0 l/m 0,0 km/h (0 Bft) O 90 0 min 0,0 UV-I 7,6 C 8,9 C 0,0 km/h (0 Bft)
09.09.2013 21:35 9,2 C 23,4 C 10,7 C 9,1 C 8,9 C 0,0 C 89 % 89 % 0 % 1017,2 hPa 0,0 l/m 0,0 km/h (0 Bft) NO 45 0 min 0,0 UV-I 7,5 C 8,9 C 0,0 km/h (0 Bft)
09.09.2013 21:40 9,1 C 23,4 C 10,5 C 9,0 C 8,8 C 0,0 C 89 % 89 % 0 % 1017,2 hPa 0,0 l/m 0,0 km/h (0 Bft) NO 45 0 min 0,0 UV-I 7,4 C 8,8 C 0,0 km/h (0 Bft)
09.09.2013 21:45 9,0 C 23,4 C 10,5 C 8,9 C 8,7 C 0,0 C 89 % 89 % 0 % 1017,2 hPa 0,0 l/m 0,0 km/h (0 Bft) NO 45 0 min 0,0 UV-I 7,3 C 8,7 C 0,0 km/h (0 Bft)
09.09.2013 21:50 8,9 C 23,4 C 10,4 C 8,8 C 8,6 C 0,0 C 89 % 89 % 0 % 1017,2 hPa 0,0 l/m 0,0 km/h (0 Bft) NO 45 0 min 0,0 UV-I 7,2 C 8,6 C 0,0 km/h (0 Bft)
09.09.2013 21:55 8,9 C 23,4 C 10,5 C 8,8 C 8,6 C 0,0 C 89 % 89 % 0 % 1017,1 hPa 0,0 l/m 0,0 km/h (0 Bft) NW 315 0 min 0,0 UV-I 7,2 C 8,6 C 0,0 km/h (0 Bft)
09.09.2013 22:00 8,8 C 23,5 C 10,3 C 8,7 C 8,6 C 0,0 C 89 % 89 % 0 % 1017,1 hPa 0,0 l/m 0,0 km/h (0 Bft) NO 45 0 min 0,0 UV-I 7,1 C 8,6 C 0,0 km/h (0 Bft)
09.09.2013 22:05 8,8 C 23,5 C 10,3 C 8,8 C 8,7 C 0,0 C 89 % 89 % 0 % 1017,1 hPa 0,0 l/m 0,0 km/h (0 Bft) NO 45 0 min 0,0 UV-I 7,1 C 8,7 C 0,0 km/h (0 Bft)
09.09.2013 22:10 8,7 C 23,5 C 10,3 C 8,7 C 8,6 C 0,0 C 89 % 89 % 0 % 1017,1 hPa 0,0 l/m 0,0 km/h (0 Bft) W-SW 247 0 min 0,0 UV-I 7,0 C 8,6 C 0,0 km/h (0 Bft)
09.09.2013 22:15 8,7 C 23,5 C 10,2 C 8,6 C 8,5 C 0,0 C 89 % 89 % 0 % 1017,6 hPa 0,0 l/m 0,0 km/h (0 Bft) W 270 0 min 0,0 UV-I 7,0 C 8,5 C 0,0 km/h (0 Bft)
09.09.2013 22:20 8,5 C 23,4 C 10,1 C 8,5 C 8,4 C 0,0 C 89 % 89 % 0 % 1017,6 hPa 0,0 l/m 0,0 km/h (0 Bft) W-SW 247 0 min 0,0 UV-I 6,8 C 8,4 C 0,0 km/h (0 Bft)
09.09.2013 22:25 8,5 C 23,4 C 10,1 C 8,4 C 8,3 C 0,0 C 89 % 89 % 0 % 1017,6 hPa 0,0 l/m 0,0 km/h (0 Bft) W-SW 247 0 min 0,0 UV-I 6,8 C 8,3 C 0,0 km/h (0 Bft)
09.09.2013 22:30 8,4 C 23,4 C 10,0 C 8,4 C 8,3 C 0,0 C 89 % 89 % 0 % 1017,6 hPa 0,0 l/m 0,0 km/h (0 Bft) W-SW 247 0 min 0,0 UV-I 6,7 C 8,3 C 0,0 km/h (0 Bft)
09.09.2013 22:35 8,3 C 23,4 C 9,9 C 8,3 C 8,2 C 0,0 C 89 % 89 % 0 % 1017,8 hPa 0,0 l/m 0,0 km/h (0 Bft) W-SW 247 0 min 0,0 UV-I 6,6 C 8,2 C 0,0 km/h (0 Bft)
09.09.2013 22:40 8,3 C 23,4 C 9,9 C 8,2 C 8,0 C 0,0 C 89 % 89 % 0 % 1017,8 hPa 0,0 l/m 0,0 km/h (0 Bft) W-SW 247 0 min 0,0 UV-I 6,6 C 8,0 C 0,0 km/h (0 Bft)
09.09.2013 22:45 8,1 C 23,4 C 9,9 C 8,1 C 8,0 C 0,0 C 89 % 89 % 0 % 1017,8 hPa 0,0 l/m 0,0 km/h (0 Bft) W-SW 247 0 min 0,0 UV-I 6,4 C 8,0 C 0,0 km/h (0 Bft)
09.09.2013 22:50 8,0 C 23,4 C 9,9 C 8,0 C 8,0 C 0,0 C 89 % 89 % 0 % 1017,8 hPa 0,0 l/m 0,0 km/h (0 Bft) W-SW 247 0 min 0,0 UV-I 6,3 C 8,0 C 0,0 km/h (0 Bft)
09.09.2013 22:55 8,0 C 23,4 C 9,9 C 8,0 C 8,0 C 0,0 C 89 % 89 % 0 % 1017,2 hPa 0,0 l/m 0,0 km/h (0 Bft) NW 315 0 min 0,0 UV-I 6,3 C 8,0 C 0,0 km/h (0 Bft)
09.09.2013 23:00 8,0 C 23,4 C 9,7 C 8,0 C 7,9 C 0,0 C 89 % 89 % 0 % 1017,2 hPa 0,0 l/m 0,0 km/h (0 Bft) W-SW 247 0 min 0,0 UV-I 6,3 C 7,9 C 0,0 km/h (0 Bft)
09.09.2013 23:05 7,9 C 23,4 C 9,6 C 7,9 C 7,9 C 0,0 C 89 % 89 % 0 % 1017,2 hPa 0,0 l/m 0,0 km/h (0 Bft) W-SW 247 0 min 0,0 UV-I 6,2 C 7,9 C 0,0 km/h (0 Bft)
09.09.2013 23:10 7,8 C 23,4 C 9,6 C 7,9 C 7,9 C 0,1 C 89 % 89 % 0 % 1017,2 hPa 0,0 l/m 0,0 km/h (0 Bft) W-SW 247 0 min 0,0 UV-I 6,1 C 7,9 C 0,0 km/h (0 Bft)
09.09.2013 23:15 7,9 C 23,4 C 9,6 C 7,9 C 7,8 C 0,0 C 89 % 89 % 0 % 1016,9 hPa 0,0 l/m 0,0 km/h (0 Bft) W-SW 247 0 min 0,0 UV-I 6,2 C 7,8 C 0,0 km/h (0 Bft)
09.09.2013 23:20 7,7 C 23,4 C 9,7 C 7,7 C 7,7 C 0,0 C 89 % 89 % 0 % 1016,9 hPa 0,0 l/m 0,0 km/h (0 Bft) W-SW 247 0 min 0,0 UV-I 6,0 C 7,7 C 0,0 km/h (0 Bft)
09.09.2013 23:25 7,6 C 23,4 C 9,6 C 7,7 C 7,7 C 0,1 C 89 % 89 % 0 % 1016,9 hPa 0,0 l/m 0,0 km/h (0 Bft) W-SW 247 0 min 0,0 UV-I 5,9 C 7,7 C 0,0 km/h (0 Bft)
09.09.2013 23:30 7,6 C 23,4 C 9,5 C 7,6 C 7,6 C 0,0 C 89 % 89 % 0 % 1016,9 hPa 0,0 l/m 0,0 km/h (0 Bft) W-SW 247 0 min 0,0 UV-I 5,9 C 7,6 C 0,0 km/h (0 Bft)
09.09.2013 23:35 7,6 C 23,3 C 9,5 C 7,6 C 7,6 C 0,0 C 89 % 89 % 0 % 1017,1 hPa 0,0 l/m 0,0 km/h (0 Bft) W-SW 247 0 min 0,0 UV-I 5,9 C 7,6 C 0,0 km/h (0 Bft)
09.09.2013 23:40 7,5 C 23,3 C 9,5 C 7,6 C 7,6 C 0,1 C 90 % 89 % 0 % 1017,1 hPa 0,0 l/m 0,0 km/h (0 Bft) W 270 0 min 0,0 UV-I 6,0 C 7,6 C 0,0 km/h (0 Bft)
09.09.2013 23:45 7,5 C 23,3 C 9,5 C 7,6 C 7,6 C 0,1 C 90 % 89 % 0 % 1017,1 hPa 0,0 l/m 0,0 km/h (0 Bft) W-SW 247 0 min 0,0 UV-I 6,0 C 7,6 C 0,0 km/h (0 Bft)
09.09.2013 23:50 7,5 C 23,3 C 9,4 C 7,6 C 7,6 C 0,1 C 90 % 90 % 0 % 1017,1 hPa 0,0 l/m 0,0 km/h (0 Bft) W-SW 247 0 min 0,0 UV-I 6,0 C 7,6 C 0,0 km/h (0 Bft)
09.09.2013 23:55 7,5 C 23,3 C 9,5 C 7,7 C 7,7 C 0,2 C 90 % 90 % 0 % 1016,4 hPa 0,0 l/m 0,0 km/h (0 Bft) W-SW 247 0 min 0,0 UV-I 6,0 C 7,7 C 0,0 km/h (0 Bft)
_ Min-Zeit 23:40 17:40 23:50 23:30 23:30 00:00 00:00 00:00 00:00 04:55 - 18:35 - - - 00:00 23:25 23:30 00:00
Minimum _ 7,5 C 23,3 C 9,4 C 7,6 C 7,6 C 0,0 C 83 % 81 % 0 % 1012,4 hPa - 0,0 km/h (0 Bft) - - - 0,0 UV-I 5,9 C 7,6 C 0,0 km/h (0 Bft)
_ Max-Zeit 00:00 00:00 00:10 16:00 16:00 16:05 08:05 23:50 16:05 22:35 06:20 12:00 - - 06:50 00:00 00:00 16:00 10:15
Maximum _ 15,9 C 25,4 C 16,3 C 16,6 C 16,6 C 3,1 C 91 % 90 % 82 % 1017,8 hPa 1,4 l/m 7,9 km/h
W (2 Bft)
- - 5 min 0,0 UV-I 13,0 C 16,6 C 19,2 km/h
W-SW (3 Bft)
Durchschnitt _ 12,2 C 24,2 C 13,5 C 12,9 C 12,8 C 0,6 C 88 % 87 % 14 % 1015,3 hPa #16,5 l/m 2,6 km/h (1 Bft) W-SW - #20 min. 0,0 UV-I 10,3 C 12,8 C 3,6 km/h (1 Bft)
2013 www.wetterstation-wechselburg.de